User: anonymous   Login
Location: Muenchen
(48.1800°N, 11.5800°E)
Time: 03:23:02
(UTC+02:00)
Language:

Cosmos 2233 Rocket - Orbit

View from above orbital plane
View from above orbital plane
View from above satellite
View from above satellite

Ground track
Ground track

The orbit data is extracted from the following two-line orbital elements,

1 22488U 93008B   16144.71010084 +.00000006 +00000-0 -90509-5 0  9996
2 22488 082.9430 008.2707 0024261 235.0581 189.4625 13.77702620170340
Epoch (UTC): 23 May 2016 17:02:32
Eccentricity: 0.0024261
inclination: 82.9430°
perigee height: 954 km
apogee height: 990 km
right ascension of ascending node: 8.2707°
argument of perigee: 235.0581°
revolutions per day: 13.77702620
mean anomaly at epoch: 189.4625°
orbit number at epoch: 17034

The dashed part of the orbit path shows where the satellite is in the earth's shadow,  

DLR